Miscellaneous Local Product
Issued by NWS North Platte, NE

Home | Current Version | Previous Version | Text Only | Print | Product List | Glossary On
Versions: 1 2 3 4 5 6 7 8 9 10 11 12 13 14 15 16 17 18 19 20 21 22 23 24 25 26 27 28 29 30 31 32 33 34 35 36 37 38 39 40 41 42 43 44 45 46 47 48 49 50
000
AXUS43 KLBF 011910
MISLBF


WESTERN AND NORTH CENTRAL NEBRASKA HOURLY WEATHER ROUNDUP
NATIONAL WEATHER SERVICE NORTH PLATTE NE
200 PM CDT MON SEP 01 2014

***STATIONS NOT REPORTING VARIABLES SUCH AS SKY/WEATHER OR
PRESSURE ARE PROVIDED BY THE NEBRASKA DEPARTMENT OF
ROADS...RAWS...AND APRS NETWORKS...AND ARE NOT UNDER
NATIONAL WEATHER SERVICE QUALITY CONTROL***

...OBSERVATIONS IN AND NEAR THE EASTERN PANHANDLE OF NEBRASKA...

CITY           SKY/WX    TMP DP  RH WIND       PRES   REMARKS
PINE RIDGE     SUNNY     74  48  39 W9        29.92F
CHADRON        MOSUNNY   75  48  38 W9        29.91F
ALLIANCE       SUNNY     73  44  35 SW9       29.96F
SIDNEY         MOSUNNY   74  47  38 SW12      30.02F
WHITECLAY        N/A     74  47  38 W7          N/A
RUSHVILLE        N/A     73  41  31 W12         N/A
GORDON           N/A     75  41  29 NE12        N/A
LISCO            N/A     78  47  33 S10         N/A
BIG SPRINGS      N/A     70  53  54 W3          N/A
$$

...OBSERVATIONS IN NORTH CENTRAL NEBRASKA...

CITY           SKY/WX    TMP DP  RH WIND       PRES   REMARKS
VALENTINE      SUNNY     75  46  35 VRB3      29.92F
THEDFORD       MOSUNNY   75  51  42 SW6       29.95F
AINSWORTH      SUNNY     74  49  41 W7        29.92F
O`NEILL        SUNNY     76  54  44 W8        29.91S
ORD            MOSUNNY   76  52  43 VRB3      29.91S
BROKEN BOW     MOSUNNY   75  54  47 VRB3      29.94F
SPRINGVIEW       N/A     78  53  41 W5          N/A
ROSE             N/A     80  56  44 S5          N/A
NEWPORT          N/A     78  52  40 W8          N/A
COMSTOCK         N/A     81  56  41 W3          N/A
CHAMBERS         N/A     78  51  38 W3          N/A
EWING            N/A     77  60  54 W3          N/A
$$

...OBSERVATIONS IN SOUTHWEST NEBRASKA AND FAR NORTHEAST COLORADO...

CITY           SKY/WX    TMP DP  RH WIND       PRES   REMARKS
WRAY             N/A     75  48  38 SW3       30.01F
HOLYOKE        FAIR      73  55  53 W5        30.01F
IMPERIAL       CLOUDY    71  52  50 N5        30.00F
OGALLALA       MOSUNNY   71  50  48 S9        29.98F
NORTH PLATTE   MOSUNNY   75  52  44 W7        29.96F
MCCOOK         PTSUNNY   75  54  47 NW9       29.98F
LEXINGTON      PTSUNNY   71  56  58 SW9       29.98R
PAXTON           N/A     71  55  56 CALM        N/A
SUTHERLAND       N/A     77  52  41 S6          N/A
BRADY            N/A     72  54  53 CALM        N/A
GOTHENBURG       N/A     75  48  38 SW3         N/A
CALLAWAY         N/A     72  58  61 SW3         N/A
$$

...SOME WEATHER OBSERVATIONS FROM AROUND THE REGION...

CITY           SKY/WX    TMP DP  RH WIND       PRES   REMARKS
DENVER         MOSUNNY   76  37  24 NW12      30.03F
LARAMIE        CLOUDY    62  32  32 W17       30.11F
CHEYENNE       CLOUDY    67  29  24 VRB7      30.06F
SCOTTSBLUFF    SUNNY     76  40  27 W14G23    29.95F
RAPID CITY     PTSUNNY   72  47  40 N12       29.92F
PIERRE         PTSUNNY   76  55  48 SW7G17    29.82F
WINNER         FAIR      77  50  38 VRB5      29.89F
SIOUX FALLS    MOSUNNY   75  60  59 NW12      29.84S
OMAHA          MOSUNNY   78  61  55 W7G17     29.87F
GRAND ISLAND   MOSUNNY   77  55  46 W5        29.93S
KANSAS CITY    CLOUDY    77  67  71 W8        29.91R
WICHITA        CLOUDY    82  69  64 VRB7      29.86F
HAYS           SUNNY     77  61  57 CALM      29.93F
LIBERAL        SUNNY     82  63  51 N15       29.93F
GOODLAND       SUNNY     75  48  38 CALM      30.01F
$$



USA.gov is the U.S. government's official web portal to all federal, state and local government web resources and services.